Martinsville, VA

10:58 AM EDT on April 23, 2017 (GMT -0400)
Blue Ridge

Weather History for KMTV - August, 2013

Change the Weather History Date:

Monday, August 5, 2013

  Actual Average (KINT) Record (KINT)
Temperature  
Mean Temperature 70 °F -  
Max Temperature 81 °F 83 °F 96 °F (1991)
Min Temperature 60 °F 65 °F 52 °F (1976)
Cooling Degree Days 6    
Growing Degree Days 20 (Base 50)    
Moisture  
Dew Point 64 °F    
Average Humidity 79    
Maximum Humidity 97    
Minimum Humidity 56    
Precipitation  
Precipitation 0.01 in - - ()
Sea Level Pressure  
Sea Level Pressure 30.10 in    
Wind  
Wind Speed 1 mph (ESE)    
Max Wind Speed 8 mph    
Max Gust Speed -    
Visibility 9 miles    
Events Rain    
Averages and records for this station are not official NWS values.
T = Trace of Precipitation, MM = Missing Value Source: NWS Daily Summary

Daily Weather History Graph

Daily Weather History Graph

Search for Another Location

Airport or City:

Trip Planner

Search our weather history database for the weather conditions in past years. The results will help you decide how hot, cold, wet, or windy it might be!

Date:

Astronomy

Aug. 05, 2013 Rise Set
Actual Time 6:29 AM EDT 8:22 PM EDT
Civil Twilight 6:01 AM EDT 8:50 PM EDT
Nautical Twilight 5:27 AM EDT 9:24 PM EDT
Astronomical Twilight 4:50 AM EDT 10:00 PM EDT
Moon 5:22 AM EDT (8/5) 7:22 PM EDT (8/5)
Length of Visible Light 14h 48m
Length of Day
13h 52m
Waning Crescent, 1% of the Moon is Illuminated
Aug 5
Waning Crescent
Aug 6
New
Aug 14
First Quarter
Aug 20
Full
Aug 28
Last Quarter

Hourly Weather History & Observations

Time (EDT) Temp. Heat Index Dew Point Humidity Pressure Visibility Wind Dir Wind Speed Gust Speed Precip Events Conditions
12:15 AM 64.9 °F - 61.9 °F 90% 30.10 in 10.0 mi Calm Calm - N/A   Scattered Clouds
12:35 AM 64.4 °F - 62.8 °F 94% 30.11 in 10.0 mi Calm Calm - N/A   Mostly Cloudy
12:55 AM 64.0 °F - 61.7 °F 92% 30.10 in 10.0 mi Calm Calm - N/A   Mostly Cloudy
1:15 AM 63.0 °F - 61.7 °F 96% 30.10 in 7.0 mi Calm Calm - N/A   Mostly Cloudy
1:35 AM 64.4 °F - 62.6 °F 94% 30.11 in 10.0 mi Calm Calm - N/A   Overcast
1:55 AM 63.9 °F - 62.2 °F 94% 30.11 in 10.0 mi Calm Calm - N/A   Overcast
2:15 AM 64.4 °F - 61.7 °F 91% 30.11 in 10.0 mi NW 3.5 mph - N/A   Overcast
2:35 AM 65.3 °F - 61.0 °F 86% 30.10 in 10.0 mi Calm Calm - N/A   Overcast
2:55 AM 63.1 °F - 61.7 °F 95% 30.11 in 10.0 mi Calm Calm - N/A   Overcast
3:15 AM 62.8 °F - 61.5 °F 96% 30.11 in 10.0 mi Calm Calm - N/A   Overcast
3:35 AM 62.6 °F - 61.2 °F 95% 30.10 in 7.0 mi Calm Calm - N/A   Scattered Clouds
3:55 AM 61.7 °F - 60.4 °F 96% 30.10 in 10.0 mi Calm Calm - N/A   Clear
4:15 AM 61.7 °F - 59.9 °F 94% 30.10 in 7.0 mi Calm Calm - N/A   Clear
4:35 AM 61.2 °F - 59.2 °F 93% 30.10 in 10.0 mi Calm Calm - N/A   Clear
4:55 AM 61.0 °F - 59.9 °F 96% 30.10 in 7.0 mi Calm Calm - N/A   Mostly Cloudy
5:15 AM 62.6 °F - 60.6 °F 93% 30.10 in 10.0 mi Calm Calm - N/A   Overcast
5:35 AM 61.7 °F - 60.3 °F 95% 30.10 in 7.0 mi Calm Calm - N/A   Overcast
5:55 AM 62.4 °F - 61.3 °F 96% 30.10 in 10.0 mi Calm Calm - N/A   Overcast
6:15 AM 60.8 °F - 59.9 °F 97% 30.11 in 7.0 mi Calm Calm - N/A   Scattered Clouds
6:35 AM 60.8 °F - 59.9 °F 97% 30.12 in 7.0 mi Calm Calm - N/A   Scattered Clouds
6:55 AM 62.1 °F - 60.3 °F 94% 30.13 in 10.0 mi North 3.5 mph - N/A   Overcast
7:15 AM 62.6 °F - 59.7 °F 90% 30.14 in 10.0 mi Calm Calm - N/A   Mostly Cloudy
7:35 AM 64.6 °F - 60.1 °F 85% 30.14 in 10.0 mi Calm Calm - N/A   Overcast
7:55 AM 65.1 °F - 60.4 °F 85% 30.15 in 10.0 mi Calm Calm - N/A   Overcast
8:15 AM 66.7 °F - 61.0 °F 82% 30.15 in 10.0 mi Calm Calm - N/A   Overcast
8:35 AM 67.1 °F - 60.4 °F 79% 30.15 in 10.0 mi North 3.5 mph - N/A   Overcast
8:55 AM 70.0 °F - 60.3 °F 71% 30.15 in 10.0 mi NNE 3.5 mph - N/A   Mostly Cloudy
9:15 AM 69.8 °F - 60.3 °F 72% 30.15 in 10.0 mi Calm Calm - N/A   Overcast
9:35 AM 71.4 °F - 59.9 °F 67% 30.15 in 10.0 mi Calm Calm - N/A   Mostly Cloudy
9:55 AM 72.5 °F - 60.4 °F 66% 30.15 in 10.0 mi East 3.5 mph - N/A   Mostly Cloudy
10:15 AM 74.8 °F - 59.5 °F 59% 30.15 in 10.0 mi East 4.6 mph - N/A   Scattered Clouds
10:35 AM 75.2 °F - 58.8 °F 57% 30.15 in 10.0 mi East 3.5 mph - N/A   Scattered Clouds
10:55 AM 76.6 °F - 60.1 °F 56% 30.16 in 10.0 mi East 6.9 mph - N/A   Scattered Clouds
11:15 AM 77.4 °F - 60.6 °F 56% 30.15 in 10.0 mi East 6.9 mph - N/A   Scattered Clouds
11:35 AM 76.8 °F - 60.1 °F 56% 30.15 in 10.0 mi East 6.9 mph - N/A   Mostly Cloudy
11:55 AM 78.3 °F - 61.5 °F 56% 30.15 in 10.0 mi Calm Calm - N/A   Mostly Cloudy
12:15 PM 78.3 °F - 61.5 °F 56% 30.14 in 10.0 mi SSE 3.5 mph - N/A   Mostly Cloudy
12:35 PM 77.9 °F - 61.7 °F 57% 30.13 in 10.0 mi South 4.6 mph - N/A   Overcast
12:55 PM 78.4 °F - 63.5 °F 60% 30.13 in 10.0 mi ESE 5.8 mph - N/A   Overcast
1:15 PM 79.5 °F - 64.0 °F 59% 30.12 in 10.0 mi SE 8.1 mph - N/A   Mostly Cloudy
1:35 PM 79.9 °F - 64.2 °F 59% 30.11 in 10.0 mi SSE 3.5 mph - N/A   Scattered Clouds
1:55 PM 79.0 °F - 63.5 °F 59% 30.10 in 10.0 mi Calm Calm - N/A   Mostly Cloudy
2:15 PM 77.5 °F - 64.2 °F 63% 30.10 in 10.0 mi SE 5.8 mph - N/A   Overcast
2:35 PM 78.3 °F - 64.4 °F 62% 30.09 in 10.0 mi Calm Calm - N/A   Overcast
2:55 PM 79.0 °F - 65.1 °F 62% 30.08 in 10.0 mi ESE 4.6 mph - N/A   Overcast
3:15 PM 77.7 °F - 65.7 °F 66% 30.08 in 10.0 mi ESE 5.8 mph - N/A   Overcast
3:35 PM 77.0 °F - 66.4 °F 70% 30.08 in 10.0 mi ESE 4.6 mph - N/A   Overcast
3:55 PM 78.4 °F - 64.4 °F 62% 30.07 in 10.0 mi SE 4.6 mph - N/A   Mostly Cloudy
4:15 PM 80.2 °F 81.8 °F 63.9 °F 57% 30.07 in 10.0 mi SSE 4.6 mph - N/A   Mostly Cloudy
4:35 PM 80.6 °F 82.3 °F 64.8 °F 58% 30.07 in 10.0 mi SSW 3.5 mph - N/A   Scattered Clouds
4:55 PM 81.9 °F 83.7 °F 65.3 °F 57% 30.06 in 10.0 mi SE 6.9 mph - N/A   Clear
5:15 PM 81.9 °F 83.9 °F 65.7 °F 58% 30.05 in 10.0 mi South 4.6 mph - N/A   Scattered Clouds
5:35 PM 80.6 °F 82.7 °F 66.2 °F 61% 30.05 in 10.0 mi SSE 4.6 mph - N/A   Scattered Clouds
5:55 PM 78.6 °F - 66.7 °F 67% 30.05 in 10.0 mi Calm Calm - N/A   Mostly Cloudy
6:15 PM 77.7 °F - 66.6 °F 68% 30.05 in 10.0 mi Calm Calm - N/A   Overcast
6:35 PM 77.0 °F - 67.1 °F 71% 30.05 in 10.0 mi Calm Calm - N/A   Overcast
6:55 PM 76.6 °F - 66.7 °F 71% 30.05 in 10.0 mi Calm Calm - N/A   Overcast
7:15 PM 76.5 °F - 68.4 °F 76% 30.05 in 10.0 mi Calm Calm - N/A   Overcast
7:35 PM 74.5 °F - 69.1 °F 83% 30.06 in 10.0 mi Calm Calm - N/A Rain Light Rain
7:55 PM 72.3 °F - 68.7 °F 88% 30.05 in 10.0 mi NNW 3.5 mph - N/A   Overcast
8:15 PM 72.9 °F - 69.6 °F 90% 30.06 in 10.0 mi Calm Calm - N/A   Overcast
8:35 PM 72.7 °F - 69.4 °F 90% 30.06 in 10.0 mi Calm Calm - N/A   Overcast
8:55 PM 71.6 °F - 68.9 °F 91% 30.06 in 10.0 mi Calm Calm - 0.01 in Rain Light Rain
9:15 PM 71.6 °F - 68.2 °F 89% 30.07 in 10.0 mi Calm Calm - N/A   Overcast
9:35 PM 70.7 °F - 68.9 °F 94% 30.07 in 7.0 mi Calm Calm - N/A Rain Light Rain
9:55 PM 70.7 °F - 68.0 °F 91% 30.07 in 10.0 mi Calm Calm - N/A   Overcast
10:15 PM 70.0 °F - 67.8 °F 93% 30.07 in 10.0 mi Calm Calm - N/A   Overcast
10:35 PM 69.8 °F - 68.0 °F 94% 30.08 in 5.0 mi Calm Calm - N/A   Overcast
10:55 PM 69.8 °F - 68.4 °F 95% 30.07 in 5.0 mi Calm Calm - N/A   Overcast
11:15 PM 69.8 °F - 68.2 °F 95% 30.07 in 7.0 mi Calm Calm - N/A   Overcast
11:35 PM 69.3 °F - 68.0 °F 96% 30.06 in 4.0 mi Calm Calm - N/A   Overcast
11:55 PM 69.4 °F - 68.2 °F 96% 30.06 in 7.0 mi Calm Calm - N/A   Overcast